{"data":{"norad_id":63935,"epoch":"2026-09-20T02:49:39.401760Z","epoch_age_seconds":180106,"freshness":"STALE","line1":"1 63935U 25098K   26263.11781715  .00009685  00000+0  34079-3 0  9993","line2":"2 63935  70.0005 141.9302 0002731 283.3589  76.7282 15.29593489 75741","mean_motion":15.29593489,"eccentricity":0.0002731,"inclination_deg":70.0005,"raan_deg":141.9302,"arg_perigee_deg":283.3589,"mean_anomaly_deg":76.7282,"bstar":0.00034079,"rev_number":7574,"period_min":94.142660148313,"perigee_km":475.15445512449,"apogee_km":478.89874548298,"semimajor_km":6855.1636003037,"source":"CELESTRAK","updated_at":"2026-09-21T09:00:35.150733Z"}}